Tracking 28792 objects as of 25-Apr-2024
HD Live streaming from Space Station
objects crossing your sky now

ARIANE 44L DEB

Track ARIANE 44L DEB now!


NORAD ID: 28575
Int'l Code: 1991-075M
Perigee: 785.9 km
Apogee: 28,717.7 km
Inclination: 6.3 °
Period: 509.2 minutes
Semi major axis: 21122 km
RCS: 1.3642 m2 (large)
Launch date: October 29, 1991
Source: France (FR)
Launch site: FRENCH GUIANA (FRGUI)

Note: This is SATELLITE DEBRIS
Your satellite tracking list
Your tracking list is empty




NASA's NSSDC Master Catalog

Two Line Element Set (TLE):
1 28575U 91075M   24115.53808907  .00000079  00000-0  51712-2 0  9996
2 28575   6.2600  21.1672 6611783  20.3135  76.7314  2.82798125228305
Source of the keplerian elements: AFSPC